Grants-Milan, NM

4:36 AM MST on January 22, 2018 (GMT -0700)
Grants-Milan Municipal

Weather History for KGNT - January, 2014

Change the Weather History Date:

Friday, January 3, 2014

  Actual Average Record
Temperature  
Mean Temperature 32 °F -  
Max Temperature 57 °F 41 °F 61 °F (1981)
Min Temperature 8 °F 10 °F -13 °F (1970)
Degree Days  
Heating Degree Days 32    
Moisture  
Dew Point 3 °F    
Average Humidity 38    
Maximum Humidity 73    
Minimum Humidity 11    
Precipitation  
Precipitation 0.00 in - - ()
Sea Level Pressure  
Sea Level Pressure 30.10 in    
Wind  
Wind Speed 6 mph (NW)    
Max Wind Speed 12 mph    
Max Gust Speed -    
Visibility 10 miles    
Events      
Averages and records for this station are not official NWS values.
T = Trace of Precipitation, MM = Missing Value Source: NWS Daily Summary

Daily Weather History Graph

Daily Weather History Graph

Search for Another Location

Airport or City:

Trip Planner

Search our weather history database for the weather conditions in past years. The results will help you decide how hot, cold, wet, or windy it might be!

Date:

Astronomy

Jan. 03, 2014 Rise Set
Actual Time 7:20 AM MST 5:12 PM MST
Civil Twilight 6:52 AM MST 5:40 PM MST
Nautical Twilight 6:20 AM MST 6:11 PM MST
Astronomical Twilight 5:49 AM MST 6:42 PM MST
Moon 8:55 AM MST (1/3) 8:17 PM MST (1/3)
Length of Visible Light 10h 47m
Length of Day
9h 51m
Waxing Crescent, 8% of the Moon is Illuminated
Jan 3
Waxing Crescent
Jan 7
First Quarter
Jan 15
Full
Jan 23
Last Quarter
Jan 30
New

Hourly Weather History & Observations

Time (MST) Temp. Windchill Dew Point Humidity Pressure Visibility Wind Dir Wind Speed Gust Speed Precip Events Conditions
12:15 AM 15.4 °F 5.6 °F 1.2 °F 54% 30.26 in 10.0 mi NW 6.9 mph - N/A   Clear
12:35 AM 16.3 °F 7.8 °F 1.2 °F 51% 30.26 in 10.0 mi NW 5.8 mph - N/A   Clear
12:55 AM 16.7 °F 6.2 °F 1.4 °F 51% 30.25 in 10.0 mi NW 8.1 mph - N/A   Clear
1:15 AM 16.2 °F 6.5 °F 1.8 °F 53% 30.24 in 10.0 mi NW 6.9 mph - N/A   Clear
1:35 AM 14.9 °F 5.0 °F 1.2 °F 55% 30.24 in 10.0 mi NW 6.9 mph - N/A   Clear
1:55 AM 14.4 °F 5.5 °F 1.2 °F 56% 30.24 in 10.0 mi NW 5.8 mph - N/A   Clear
2:15 AM 15.6 °F 5.9 °F 2.3 °F 56% 30.24 in 10.0 mi NW 6.9 mph - N/A   Clear
2:35 AM 14.4 °F 4.3 °F 2.1 °F 58% 30.23 in 10.0 mi NW 6.9 mph - N/A   Clear
2:55 AM 13.1 °F 2.8 °F 1.0 °F 59% 30.23 in 10.0 mi NNW 6.9 mph - N/A   Clear
3:15 AM 12.6 °F 0.2 °F 1.9 °F 63% 30.23 in 10.0 mi NW 9.2 mph - N/A   Clear
3:35 AM 14.0 °F 3.9 °F 1.4 °F 57% 30.23 in 10.0 mi NW 6.9 mph - N/A   Clear
3:55 AM 13.6 °F 2.5 °F 1.9 °F 60% 30.22 in 10.0 mi NW 8.1 mph - N/A   Clear
4:15 AM 11.8 °F 1.3 °F 2.3 °F 66% 30.21 in 10.0 mi NW 6.9 mph - N/A   Clear
4:35 AM 12.0 °F 1.5 °F 1.2 °F 62% 30.21 in 10.0 mi NNW 6.9 mph - N/A   Clear
4:55 AM 10.2 °F -1.7 °F 0.5 °F 65% 30.21 in 10.0 mi NW 8.1 mph - N/A   Clear
5:15 AM 11.7 °F 1.1 °F 1.4 °F 63% 30.20 in 10.0 mi NNW 6.9 mph - N/A   Clear
5:35 AM 10.0 °F 0.4 °F -0.4 °F 63% 30.20 in 10.0 mi NW 5.8 mph - N/A   Clear
5:55 AM 10.0 °F -0.9 °F 0.7 °F 66% 30.20 in 10.0 mi NW 6.9 mph - N/A   Clear
6:15 AM 11.8 °F 2.5 °F 2.1 °F 65% 30.20 in 10.0 mi NW 5.8 mph - N/A   Clear
6:35 AM 9.5 °F -0.3 °F 1.4 °F 70% 30.20 in 10.0 mi NW 5.8 mph - N/A   Clear
6:55 AM 8.6 °F -2.6 °F 1.4 °F 73% 30.20 in 10.0 mi NW 6.9 mph - N/A   Clear
7:15 AM 9.3 °F -1.7 °F 1.4 °F 70% 30.20 in 10.0 mi WNW 6.9 mph - N/A   Clear
7:35 AM 9.9 °F -2.2 °F 1.4 °F 69% 30.20 in 10.0 mi NW 8.1 mph - N/A   Clear
7:55 AM 9.5 °F -1.5 °F 1.4 °F 70% 30.20 in 10.0 mi NW 6.9 mph - N/A   Clear
8:15 AM 14.0 °F 6.5 °F 3.4 °F 63% 30.20 in 10.0 mi NW 4.6 mph - N/A   Clear
8:35 AM 16.9 °F 9.8 °F 4.6 °F 59% 30.20 in 10.0 mi NNW 4.6 mph - N/A   Clear
8:55 AM 19.8 °F 11.9 °F 5.4 °F 54% 30.20 in 10.0 mi NW 5.8 mph - N/A   Clear
9:15 AM 24.3 °F 15.4 °F 5.9 °F 46% 30.20 in 10.0 mi NW 8.1 mph - N/A   Clear
9:35 AM 27.0 °F 18.7 °F 5.0 °F 39% 30.20 in 10.0 mi NNW 8.1 mph - N/A   Clear
9:55 AM 30.0 °F 22.4 °F 5.5 °F 36% 30.18 in 10.0 mi NW 8.1 mph - N/A   Clear
10:15 AM 32.2 °F 26.7 °F 5.7 °F 33% 30.18 in 10.0 mi NNW 5.8 mph - N/A   Clear
10:35 AM 34.5 °F 29.4 °F 5.9 °F 30% 30.17 in 10.0 mi NNW 5.8 mph - N/A   Clear
10:55 AM 37.0 °F 33.3 °F 5.2 °F 26% 30.16 in 10.0 mi NNW 4.6 mph - N/A   Clear
11:15 AM 40.1 °F 38.0 °F 5.0 °F 23% 30.14 in 10.0 mi North 3.5 mph - N/A   Clear
11:35 AM 42.6 °F 39.9 °F 4.5 °F 21% 30.12 in 10.0 mi NNW 4.6 mph - N/A   Clear
11:55 AM 44.8 °F 42.4 °F 3.0 °F 18% 30.11 in 10.0 mi NW 4.6 mph - N/A   Clear
12:15 PM 47.3 °F - 3.0 °F 16% 30.09 in 10.0 mi WNW 3.5 mph - N/A   Clear
12:35 PM 49.5 °F - 2.1 °F 14% 30.07 in 10.0 mi NW 4.6 mph - N/A   Clear
12:55 PM 50.9 °F - 3.0 °F 14% 30.06 in 10.0 mi NW 5.8 mph - N/A   Clear
1:15 PM 51.8 °F - 3.6 °F 14% 30.04 in 10.0 mi NNW 4.6 mph - N/A   Clear
1:35 PM 53.1 °F - 4.8 °F 14% 30.03 in 10.0 mi Calm Calm - N/A   Clear
1:55 PM 53.6 °F - 4.8 °F 14% 30.02 in 10.0 mi NNE 3.5 mph - N/A   Clear
2:15 PM 54.0 °F - 3.9 °F 13% 30.02 in 10.0 mi Calm Calm - N/A   Clear
2:35 PM 55.4 °F - 4.3 °F 13% 30.01 in 10.0 mi NNE 6.9 mph - N/A   Clear
2:55 PM 55.9 °F - 3.7 °F 12% 30.01 in 10.0 mi NNW 4.6 mph - N/A   Clear
3:15 PM 57.4 °F - 2.5 °F 11% 30.01 in 10.0 mi WNW 10.4 mph - N/A   Clear
3:35 PM 56.5 °F - 2.1 °F 11% 30.00 in 10.0 mi WNW 11.5 mph - N/A   Clear
3:55 PM 55.0 °F - -0.0 °F 11% 30.00 in 10.0 mi West 10.4 mph - N/A   Clear
4:15 PM 53.8 °F - 0.7 °F 11% 30.00 in 10.0 mi West 9.2 mph - N/A   Clear
4:35 PM 51.4 °F - 1.9 °F 13% 30.00 in 10.0 mi WSW 8.1 mph - N/A   Clear
4:55 PM 47.5 °F - 2.1 °F 15% 30.00 in 10.0 mi West 4.6 mph - N/A   Clear
5:15 PM 42.4 °F - 2.8 °F 19% 30.00 in 10.0 mi Calm Calm - N/A   Clear
5:35 PM 37.8 °F - 2.8 °F 23% 29.99 in 10.0 mi Calm Calm - N/A   Clear
5:55 PM 37.8 °F 35.3 °F 2.5 °F 23% 29.99 in 10.0 mi WNW 3.5 mph - N/A   Clear
6:15 PM 35.8 °F - 4.1 °F 27% 29.99 in 10.0 mi Calm Calm - N/A   Clear
6:35 PM 37.4 °F 30.3 °F 2.8 °F 24% 29.99 in 10.0 mi North 10.4 mph - N/A   Clear
6:55 PM 39.7 °F 37.6 °F 2.3 °F 21% 29.99 in 10.0 mi West 3.5 mph - N/A   Clear
7:15 PM 30.4 °F - 2.3 °F 30% 29.99 in 10.0 mi Calm Calm - N/A   Clear
7:35 PM 28.8 °F 25.0 °F 2.1 °F 32% 29.99 in 10.0 mi NW 3.5 mph - N/A   Clear
7:55 PM 29.3 °F 23.2 °F 1.4 °F 30% 29.99 in 10.0 mi NW 5.8 mph - N/A   Clear
8:15 PM 28.4 °F 20.4 °F 1.4 °F 31% 29.98 in 10.0 mi North 8.1 mph - N/A   Clear
8:35 PM 38.3 °F - 2.8 °F 23% 29.99 in 10.0 mi Calm Calm - N/A   Clear
8:55 PM 31.5 °F 28.1 °F 2.5 °F 29% 29.99 in 10.0 mi WSW 3.5 mph - N/A   Clear
9:15 PM 31.8 °F 28.5 °F 3.0 °F 30% 29.99 in 10.0 mi WNW 3.5 mph - N/A   Clear
9:35 PM 27.5 °F 23.6 °F 2.7 °F 35% 29.99 in 10.0 mi SW 3.5 mph - N/A   Clear
9:55 PM 27.7 °F 22.4 °F 4.5 °F 37% 30.00 in 10.0 mi SSW 4.6 mph - N/A   Clear
10:15 PM 29.3 °F - 4.1 °F 34% 30.00 in 10.0 mi Calm Calm - N/A   Clear
10:35 PM 25.2 °F - 4.1 °F 41% 29.99 in 10.0 mi Calm Calm - N/A   Clear
10:55 PM 23.0 °F - 5.2 °F 47% 29.99 in 10.0 mi Calm Calm - N/A   Clear
11:15 PM 25.7 °F - 5.0 °F 41% 29.98 in 10.0 mi Calm Calm - N/A   Clear
11:35 PM 31.1 °F - 6.6 °F 36% 29.98 in 10.0 mi Calm Calm - N/A   Clear
11:55 PM 31.5 °F 26.8 °F 7.7 °F 37% 29.98 in 10.0 mi North 4.6 mph - N/A   Clear